Flag for Hungary Weather past 2 weeks in Győr, Hungary

Now
75 °F

Mild.


Feels Like: 78 °F
Forecast: 61 / 81 °F
Wind: 1 mph from Northeast

Location: Gyor

Current Time: May 4, 2015 at 6:06:08 PM

Latest Report: May 4, 2015 at 5:00 PM


Visibility: N/A

Pressure: 29.89 "Hg

Humidity: 58%

Dew point: 59 °F

Location of GyőrLocation

Historic Weather in Győr — Graph

°F

Győr temperature yesterday

Maximum temperature yesterday: 59 °F (at 6:00 PM)
Minimum temperature yesterday: 42 °F (at 3:00 AM)
Average temperature yesterday: 52 °F

Past Weeks' High & Low Weather Summary

 TemperatureHumidityPressure
High76 °F (Apr 27, 2:00 PM)97% (May 2, 8:00 AM)30.24 "Hg (May 2, 8:00 AM)
Low34 °F (Apr 30, 5:00 AM)23% (Apr 21, 7:00 PM)29.57 "Hg (Apr 28, 5:00 AM)
Average57 °F60%29.95 "Hg
* Reported Apr 19 4:00 PM — May 4 4:00 PM, Győr, Weather by CustomWeather, © 2015

Note: Actual official high and low records may vary slightly from our data, if they occured in-between our weather recording intervals... More about our weather records

Advertising

Győr weather history for previous 24 hours

 ConditionsComfort  
Time TempWeatherWind HumidityBarometerVisibility
4:00 PM
Mon, May 4
72 °FMild.1 mph61%29.90 "HgN/A
3:00 PM72 °FMild.No wind62%29.91 "HgN/A
2:00 PM71 °FMild.No wind68%29.92 "HgN/A
1:00 PM69 °FMild.1 mph68%29.92 "HgN/A
12:00 PM69 °FMild.No wind71%29.92 "HgN/A
11:00 AM67 °FMild.1 mph74%29.92 "HgN/A
10:00 AM64 °FPassing clouds.1 mph79%29.91 "Hg1 mi
9:00 AM61 °FCool.No wind83%29.91 "HgN/A
8:00 AM56 °FCool.No wind90%29.90 "HgN/A
7:00 AM55 °FCool.No wind91%29.88 "HgN/A
6:00 AM54 °FCool.1 mph92%29.87 "HgN/A
4:00 AM54 °FCool.No wind90%29.88 "HgN/A
3:00 AM53 °FCool.1 mph92%29.88 "HgN/A
2:00 AM53 °FCool.1 mph91%29.88 "HgN/A
1:00 AM53 °FCool.2 mph93%29.88 "HgN/A
12:00 AM54 °FCool.1 mph93%29.90 "HgN/A
11:00 PM
Sun, May 3
54 °FCool.1 mph92%29.91 "HgN/A
10:00 PM56 °FCool.2 mph82%29.91 "HgN/A
9:00 PM57 °FPassing clouds.2 mph79%29.89 "Hg1 mi
8:00 PM58 °FCool.2 mph78%29.89 "HgN/A
7:00 PM58 °FCool.2 mph75%29.89 "HgN/A
6:00 PM59 °FCool.2 mph73%29.89 "HgN/A
Weather by CustomWeather, © 2015

See weather overviewHow to use our weather pages